Regional Weather Roundup
Issued by NWS

Home | Current Version | Previous Version | Graphics & Text | Print | Product List | Glossary On
Versions: 1 2 3 4 5 6 7 8 9 10 11 12 13 14 15 16 17 18 19 20 21 22 23 24 25 26 27 28 29 30 31 32 33 34 35 36 37 38 39 40 41 42 43 44 45 46 47 48 49 50
000
ASUS45 KTFX 221319
RWRMT
MONTANA HOURLY WEATHER ROUNDUP
NATIONAL WEATHER SERVICE GREAT FALLS MT
719 AM MDT WED OCT 22 2014

NOTE: "FAIR" INDICATES FEW OR NO CLOUDS BELOW 12000 FEET WITH NO
SIGNIFICANT WEATHER AND/OR OBSTRUCTIONS TO VISIBILITY.

* THESE STATIONS ARE NOT UNDER NWS QUALITY CONTROL. THEY DO NOT
   REPORT WEATHER SUCH AS PRECIPITATION OR FOG.

MTZ001>007-043-221400-
WEST OF THE DIVIDE
CITY           SKY/WX    TMP DP  RH WIND       PRES   REMARKS
KALISPELL      CLOUDY    36  34  92 SW6       30.01F WCI  31
MISSOULA       FOG       36  36 100 CALM      30.07F VSB 3/4
BUTTE          CLEAR     30  27  89 CALM      30.10R
MULLAN PASS    FOG       34  32  92 S10       29.98F VSB 3    WCI  26
* ESSEX        N/A       40  39  96 NE2        N/A
* LINCOLN      N/A       39  35  86 S6G14      N/A   WCI  35
* LOOKOUT PASS N/A       34  34 100 S5         N/A   WCI  29
* POLSON       N/A       38  38 100 SE1        N/A
* RONAN APT    CLEAR     34  32  92 N/A        N/A
* SEELEY LAKE  N/A       30  29  96 N/A        N/A
* THOMP F APT  PTCLDY    30  28  92 NE1        N/A
$$

MTZ008-052>055-221400-
SOUTHWEST MONTANA
CITY           SKY/WX    TMP DP  RH WIND       PRES   REMARKS
BOZEMAN        CLEAR     28  27  96 SE3       30.08R
DILLON         CLEAR     30  27  89 S8        30.10S WCI  22
W YELLOWSTONE  CLOUDY    32  32 100 S7        30.15R WCI  25
* THREE FORKS  CLEAR     28  10  47 N/A        N/A
* BOULDER HILL N/A       34  26  73 S6         N/A   WCI  29
* MONIDA PASS  N/A       25  25 100 E5         N/A   WCI  19
* RAYNOLDS PAS N/A       31  14  49 SE9        N/A   WCI  23
* WHITEHALL    N/A       35  30  82 SW3G8      N/A
* WISE RIVER   N/A       28  26  92 SW3        N/A
$$

MTZ009>010-012-014-046-048-049-054-221400-
EAST SLOPES AND CENTRAL MONTANA
CITY           SKY/WX    TMP DP  RH WIND       PRES   REMARKS
CUT BANK       CLEAR     45  30  56 W18       29.88S
GREAT FALLS    CLEAR     41  34  76 SW15      29.93S
HELENA         CLEAR     37  30  76 NW5       30.04R WCI  33
MALMSTROM AFB  CLEAR     41  34  76 SW17      29.95S
* CONRAD       CLEAR     45  36  71 N/A        N/A
* DEARBORN     N/A       46  33  61 NW1G8      N/A
* EAST GLACIER N/A       41  29  62 W29G37     N/A
* MONARCH      N/A       38  24  57 SW14G21    N/A   WCI  30
* PENDROY      N/A       41  26  55 W10G16     N/A
* ROGERS PASS  N/A       37  32  82 SE16G27    N/A   WCI  28
* SAINT MARY   N/A       44  31  60 S9G22      N/A
* SWEET GRASS  N/A       42  32  68 W17        N/A
* WHITE SULPH  N/A       36  29  76 SW3G14     N/A
$$

MTZ011-013-016-021-035-040-045-047-050-051-221400-
NORTH CENTRAL MONTANA
CITY           SKY/WX    TMP DP  RH WIND       PRES   REMARKS
HAVRE          CLOUDY    46  37  71 SW18      29.87R
LEWISTOWN      CLEAR     37  30  76 CALM      29.96S
* CHINOOK      PTCLDY    48  36  63 W15G22    29.84F
* FORT BENTON  CLEAR     43  34  71 SW5       29.93S
* CHESTER      N/A       37  32  82 SW6G11     N/A   WCI  32
* DENTON       N/A       36  31  82 SW8        N/A   WCI  30
* GEYSER       N/A       42  28  58 SW16G22    N/A
* JUDITH GAP   N/A       39  30  70 SW17G24    N/A   WCI  30
* LOMA         N/A       42  35  76 W6         N/A
$$

MTZ017>020-022>027-061-062-221400-
NORTHEAST MONTANA
CITY           SKY/WX    TMP DP  RH WIND       PRES   REMARKS
GLASGOW        CLOUDY    48  37  66 W13       29.81R
GLENDIVE       PTCLDY    45  37  74 SW10      29.89F
JORDAN         CLEAR     45  36  71 W8        29.90R
SIDNEY         CLEAR     48  41  77 SW9       29.83F
WOLF POINT     FAIR      48  41  77 W8        29.81S
* BEAVER HILL  N/A       45  40  83 SW19G26    N/A
* CIRCLE       N/A       44  39  83 N/A        N/A
* LINDSAY DVD  N/A       45  37  74 SW16G22    N/A
* NAVAJO       N/A       44  41  89 W16        N/A
$$

MTZ028>042-056>058-221400-
SOUTHCENTRAL AND SOUTHEAST MONTANA
CITY           SKY/WX    TMP DP  RH WIND       PRES   REMARKS
BAKER          PTCLDY    43  37  79 W10       29.92R
BILLINGS       FAIR      46  28  50 W21       29.99S
LIVINGSTON     CLEAR     45  27  49 W24G33    30.03S
MILES CITY     CLEAR     43  36  76 CALM      29.94R
* LAUREL APT   CLEAR     48  23  37 N/A        N/A
* ROUNDUP APT  CLEAR     45  28  51 N/A        N/A
* ALZADA       N/A       40  35  82 W6         N/A   WCI  36
* HYSHAM       N/A       43  30  60 W7G12      N/A
* LAME DEER    N/A       39  29  67 W8         N/A   WCI  33
* REED POINT   N/A       41  27  58 W4         N/A
* ROSCOE HILL  N/A       40  15  36 SE5        N/A   WCI  36
$$

REGIONAL REPORTS...DAKOTAS
CITY           SKY/WX    TMP DP  RH WIND       PRES   REMARKS
WILLISTON      PTCLDY    48  41  77 SW10      29.80R
DICKINSON      PTCLDY    48  43  83 W15       29.83R
BEACH          N/A       45  41  86 W15G21    29.88R
CROSBY         PTCLDY    50  46  86 SW15G21   29.73S
TIOGA          FAIR      46  46 100 W14       29.80R
BISMARCK       CLOUDY    57  46  67 NW17G24   29.78R
GRAND FORKS    MOCLDY    54  43  67 S21G30    29.79F
FARGO          PTCLDY    54  41  62 SE25G40   29.85F
BUFFALO SD     MOCLDY    46  37  71 W15       29.85S
RAPID CITY     CLOUDY    52  34  50 N20G30    29.92R
$$

REGIONAL REPORTS...WYOMING/IDAHO/WASHINGTON
CITY           SKY/WX    TMP DP  RH WIND       PRES   REMARKS
GILLETTE       PTCLDY    36  28  73 W3        30.03R
SHERIDAN       CLEAR     37  27  67 SW6       30.03R WCI  32
CODY           PTCLDY    41  27  58 NW3       30.05R
YELLOWSTONE LA PTCLDY    28  27  96 VRB3      30.16S
SALMON         PTCLDY   N/A N/A N/A N/A        N/A
MULLAN PASS    FOG       34  32  92 S10       29.98S VSB 3    WCI  26
SAND POINT     PTCLDY    39  39 100 CALM      29.96F
SPOKANE        PTCLDY    45  37  74 SE10      29.91F
$$

REGIONAL REPORTS...ALBERTA
CITY           SKY/WX    TMP DP  RH WIND       PRES   REMARKS
CALGARY        N/A       39  27  62 SW8       29.75F WCI  33
LETHBRIDGE     N/A       43  30  60 SW15      29.83S
MEDICINE HAT   PTCLDY    41  36  82 SW6       29.80S
EDMONTON       PTCLDY    32  28  85 SE7       29.69F WCI  25
WATERTON GATE  N/A       46  27  48 SW24G36    N/A
CARDSTON       N/A       43  30  60 SW6        N/A
MILK RIVER     N/A       36  30  79 W7         N/A   WCI  30
$$

REGIONAL REPORTS...SASKATCHEWAN
CITY           SKY/WX    TMP DP  RH WIND       PRES   REMARKS
SWIFT CURRENT  LGT RAIN  46  46 100 W17       29.74S
MOOSE JAW      N/A       46  45  96 W14       29.68R
REGINA         MOCLDY    46  45  96 W12       29.65R
VAL MARIE      N/A       46  45  96 W12        N/A
ASSINIBOIA     N/A       45  41  86 W12        N/A

$$




USA.gov is the U.S. government's official web portal to all federal, state and local government web resources and services.